Location: Fort Wayne
(41.1310°N, 85.1290°W)
Time: 21:50:49
(UTC-04:00)

Cosmos 2219 Rocket - Visible Passes

Search period start: 26 July 2016 00:00
Search period end: 05 August 2016 00:00
Orbit: 829 x 846 km, 71.0° (Epoch: 25 July)

Date Brightness Start Highest point End Pass type
(mag) Time Alt. Az. Time Alt. Az. Time Alt. Az.
31 Jul 4.5 05:52:07 10° SSE 05:56:14 22° E 06:00:22 10° NE visible
01 Aug 4.6 05:36:02 10° SE 05:39:57 20° E 05:43:52 10° NE visible
02 Aug 4.6 05:19:58 10° SE 05:23:39 18° E 05:27:21 10° ENE visible
03 Aug 4.6 05:03:57 10° SE 05:07:22 17° E 05:10:48 10° ENE visible
04 Aug 4.6 04:47:57 10° SE 04:51:05 15° E 04:54:13 10° ENE visible
